Location: Catstown
(52.4386°N, 7.2633°W)
Time: 22:09:40
(UTC+00:00)

FREGAT/IRIS - Pass Details

Date: 18 September 2020
Orbit: 309 x 312 km, 96.9° (Epoch: 21 October)

Event Time Altitude Azimuth Distance (km) Brightness Sun altitude
Exits shadow 20:33:48 21° 210° (SSW) 806 4.2 -18.0°
Maximum altitude 20:35:04 34° 262° (W) 566 3.9 -18.2°
Drops below altitude 10° 20:37:33 10° 330° (NNW) 1,259 6.0 -18.5°
Sets 20:39:34 0° 340° (NNW) 2,102 7.1 -18.8°
